Location: Artiguedieu
(43.5000°N, 0.5454°E)
Time: 13:06:45
(UTC+00:00)

COSMOS 2406 - Pass Details

Date: 06 December 2020
Orbit: 840 x 866 km, 71.0° (Epoch: 28 January)

Event Time Altitude Azimuth Distance (km) Brightness Sun altitude
Exits shadow 05:44:50 16° 327° (NNW) 2,133 4.9 -16.0°
Maximum altitude 05:49:29 61° 250° (WSW) 975 3.3 -15.2°
Drops below altitude 10° 05:55:09 10° 171° (S) 2,501 6.0 -14.2°
Sets 05:57:37 0° 168° (SSE) 3,434 6.8 -13.8°
